H1 CPF 2 NER 2022 5 30 9 150 01 glonass106 H2 0705201 9106 32275 2022 5 30 0 0 0 2022 6 2 23 45 0 900 1 1 0 0 0 1 H9 10 0 59729 0.00000 0 4218672.215 -21069384.080 13738405.822 10 0 59729 900.00000 0 4713360.590 -22529750.581 10986196.467 10 0 59729 1800.00000 0 4963876.375 -23697634.435 8020492.205 10 0 59729 2700.00000 0 5007982.838 -24525748.529 4898933.940 10 0 59729 3600.00000 0 4892086.233 -24977496.395 1682185.646 10 0 59729 4500.00000 0 4669025.049 -25028516.815 -1567247.648 10 0 59729 5400.00000 0 4395591.228 -24667733.508 -4786237.436 10 0 59729 6300.00000 0 4129889.104 -23897865.729 -7912260.746 10 0 59729 7200.00000 0 3928644.535 -22735378.354 -10884616.164 10 0 59729 8100.00000 0 3844578.713 -21209873.685 -13645602.911 10 0 59729 9000.00000 0 3923958.182 -19362950.563 -16141639.935 10 0 59729 9900.00000 0 4204424.956 -17246578.800 -18324303.207 10 0 59729 10800.00000 0 4713198.608 -14921056.976 -20151261.415 10 0 59729 11700.00000 0 5465726.421 -12452638.874 -21587092.374 10 0 59729 12600.00000 0 6464838.708 -9910927.424 -22603964.884 10 0 59729 13500.00000 0 7700445.215 -7366144.285 -23182173.554 10 0 59729 14400.00000 0 9149785.926 -4886388.099 -23310516.877 10 0 59729 15300.00000 0 10778226.436 -2534994.637 -22986511.793 10 0 59729 16200.00000 0 12540565.456 -368107.619 -22216440.933 10 0 59729 17100.00000 0 14382800.772 1567439.972 -21015231.748 10 0 59729 18000.00000 0 16244280.778 3235846.988 -19406169.718 10 0 59729 18900.00000 0 18060152.694 4613597.205 -17420450.823 10 0 59729 19800.00000 0 19764006.000 5690193.231 -15096581.344 10 0 59729 20700.00000 0 21290601.178 6468341.561 -12479636.011 10 0 59729 21600.00000 0 22578570.047 6963581.979 -9620388.185 10 0 59729 22500.00000 0 23572974.772 7203377.633 -6574328.330 10 0 59729 23400.00000 0 24227618.125 7225704.711 -3400589.444 10 0 59729 24300.00000 0 24507007.759 7077201.706 -160800.058 10 0 59729 25200.00000 0 24387891.460 6810956.934 3082112.966 10 0 59729 26100.00000 0 23860298.186 6484028.264 6265148.290 10 0 59729 27000.00000 0 22928040.422 6154800.505 9326456.537 10 0 59729 27900.00000 0 21608655.951 5880292.827 12206545.021 10 0 59729 28800.00000 0 19932790.814 5713530.746 14849436.839 10 0 59729 29700.00000 0 17943048.715 5701094.515 17203761.418 10 0 59729 30600.00000 0 15692354.545 5880948.271 19223755.057 10 0 59729 31500.00000 0 13241900.188 6280642.359 20870151.804 10 0 59729 32400.00000 0 10658758.123 6915965.477 22110947.415 10 0 59729 33300.00000 0 8013262.142 7790104.200 22922021.668 10 0 59729 34200.00000 0 5376264.180 8893346.071 23287607.102 10 0 59729 35100.00000 0 2816381.134 10203339.527 23200595.334 10 0 59729 36000.00000 0 397345.923 11685900.619 22662675.187 10 0 59729 36900.00000 0 -1824427.491 13296333.345 21684300.007 10 0 59729 37800.00000 0 -3801964.412 14981208.980 20284484.830 10 0 59729 38700.00000 0 -5499447.613 16680530.387 18490437.181 10 0 59729 39600.00000 0 -6893462.642 18330190.995 16337028.491 10 0 59729 40500.00000 0 -7973719.366 19864625.664 13866116.171 10 0 59729 41400.00000 0 -8743220.823 21219542.356 11125729.264 10 0 59729 42300.00000 0 -9217873.460 22334619.896 8169133.443 10 0 59729 43200.00000 0 -9425556.557 23156058.363 5053793.504 10 0 59729 44100.00000 0 -9404691.232 23638874.671 1840253.657 10 0 59729 45000.00000 0 -9202370.634 23748846.486 -1409042.221 10 0 59729 45900.00000 0 -8872131.382 23464022.427 -4630967.058 10 0 59729 46800.00000 0 -8471461.486 22775734.756 -7762939.641 10 0 59729 47700.00000 0 -8059150.943 21689071.762 -10744141.868 10 0 59729 48600.00000 0 -7692597.760 20222789.846 -13516700.177 10 0 59729 49500.00000 0 -7425183.785 18408668.864 -16026808.077 10 0 59729 50400.00000 0 -7303831.567 16290337.662 -18225767.895 10 0 59729 51300.00000 0 -7366845.539 13921618.853 -20070931.840 10 0 59729 52200.00000 0 -7642128.696 11364461.693 -21526524.585 10 0 59729 53100.00000 0 -8145849.911 8686549.071 -22564331.969 10 0 59729 54000.00000 0 -8881618.062 5958677.745 -23164243.207 10 0 59729 54900.00000 0 -9840197.904 3252020.112 -23314636.742 10 0 59729 55800.00000 0 -10999779.925 635380.578 -23012602.833 10 0 59729 56700.00000 0 -12326793.430 -1827440.526 -22263998.937 10 0 59729 57600.00000 0 -13777229.476 -4080067.125 -21083336.942 10 0 59729 58500.00000 0 -15298419.024 -6075652.161 -19493504.318 10 0 59729 59400.00000 0 -16831192.713 -7778580.623 -17525324.215 10 0 59729 60300.00000 0 -18312332.618 -9165701.071 -15216962.452 10 0 59729 61200.00000 0 -19677213.933 -10227035.250 -12613192.284 10 0 59729 62100.00000 0 -20862526.319 -10965937.140 -9764530.477 10 0 59729 63000.00000 0 -21808960.999 -11398695.629 -6726260.852 10 0 59729 63900.00000 0 -22463750.701 -11553598.173 -3557363.837 10 0 59729 64800.00000 0 -22782955.430 -11469495.515 -319372.558 10 0 59729 65700.00000 0 -22733397.382 -11193928.516 2924822.387 10 0 59729 66600.00000 0 -22294162.884 -10780896.678 6112195.971 10 0 59729 67500.00000 0 -21457607.280 -10288363.158 9180815.519 10 0 59729 68400.00000 0 -20229819.551 -9775602.286 12071046.989 10 0 59729 69300.00000 0 -18630526.210 -9300502.278 14726716.750 10 0 59729 70200.00000 0 -16692437.593 -8916937.744 17096205.935 10 0 59729 71100.00000 0 -14460063.123 -8672323.574 19133455.817 10 0 59729 72000.00000 0 -11988044.470 -8605454.080 20798864.464 10 0 59729 72900.00000 0 -9339075.690 -8744719.094 22060057.281 10 0 59729 73800.00000 0 -6581496.574 -9106772.766 22892516.611 10 0 59729 74700.00000 0 -3786659.184 -9695711.662 23280058.289 10 0 59729 75600.00000 0 -1026176.694 -10502797.243 23215146.160 10 0 59729 76500.00000 0 1630831.447 -11506734.964 22699038.606 10 0 59729 77400.00000 0 4120383.914 -12674498.725 21741764.313 10 0 59729 78300.00000 0 6386062.139 -13962666.574 20361927.748 10 0 59729 79200.00000 0 8381114.983 -15319211.970 18586347.964 10 0 59729 80100.00000 0 10070156.576 -16685675.724 16449537.581 10 0 59729 81000.00000 0 11430387.457 -17999627.594 13993031.828 10 0 59729 81900.00000 0 12452289.138 -19197314.163 11264580.424 10 0 59729 82800.00000 0 13139764.107 -20216381.587 8317217.974 10 0 59729 83700.00000 0 13509716.700 -20998558.439 5208230.908 10 0 59729 84600.00000 0 13591093.755 -21492185.426 1998041.192 10 0 59729 85500.00000 0 13423426.684 -21654485.028 -1250971.097 10 0 59730 0.00000 0 13054937.702 -21453475.072 -4475682.771 10 0 59730 900.00000 0 12540291.045 -20869445.054 -7613457.758 10 0 59730 1800.00000 0 11938085.627 -19895932.995 -10603363.756 10 0 59730 2700.00000 0 11308195.216 -18540161.017 -13387357.174 10 0 59730 3600.00000 0 10709069.482 -16822911.181 -15911408.736 10 0 59730 4500.00000 0 10195110.112 -14777846.426 -18126549.651 10 0 59730 5400.00000 0 9814232.831 -12450304.744 -19989817.974 10 0 59730 6300.00000 0 9605718.133 -9895616.539 -21465087.301 10 0 59730 7200.00000 0 9598441.075 -7177014.975 -22523762.254 10 0 59730 8100.00000 0 9809554.442 -4363225.766 -23145328.010 10 0 59730 9000.00000 0 10243680.488 -1525835.855 -23317743.922 10 0 59730 9900.00000 0 10892645.173 1263450.420 -23037674.103 10 0 59730 10800.00000 0 11735766.152 3935554.814 -22310550.965 10 0 59730 11700.00000 0 12740682.776 6426655.523 -21150470.575 10 0 59730 12600.00000 0 13864693.709 8680596.195 -19579921.754 10 0 59730 13500.00000 0 15056546.705 10650974.698 -17629353.819 10 0 59730 14400.00000 0 16258606.070 12302825.828 -15336590.761 10 0 59730 15300.00000 0 17409307.447 13613828.793 -12746102.605 10 0 59730 16200.00000 0 18445797.281 14574990.007 -9908147.404 10 0 59730 17100.00000 0 19306646.378 15190773.480 -6877799.842 10 0 59730 18000.00000 0 19934523.386 15478673.986 -3713884.963 10 0 59730 18900.00000 0 20278715.512 15468251.614 -477837.411 10 0 59730 19800.00000 0 20297389.799 15199668.909 2767491.737 10 0 59730 20700.00000 0 19959498.992 14721792.724 5959057.073 10 0 59730 21600.00000 0 19246250.817 14089941.435 9034845.908 10 0 59730 22500.00000 0 18152077.719 13363373.081 11935085.992 10 0 59730 23400.00000 0 16685065.173 12602621.041 14603409.922 10 0 59730 24300.00000 0 14866819.442 11866790.233 16987953.233 10 0 59730 25200.00000 0 12731779.202 11210928.485 19042364.579 10 0 59730 26100.00000 0 10325998.942 10683584.389 20726708.116 10 0 59730 27000.00000 0 7705454.120 10324655.019 22008240.614 10 0 59730 27900.00000 0 4933938.018 10163614.523 22862048.300 10 0 59730 28800.00000 0 2080637.401 10218198.427 23271531.191 10 0 59730 29700.00000 0 -782512.723 10493599.279 23228725.772 10 0 59730 30600.00000 0 -3583585.789 10982207.630 22734459.884 10 0 59730 31500.00000 0 -6253417.628 11663909.476 21798336.918 10 0 59730 32400.00000 0 -8728243.834 12506927.798 20438549.590 10 0 59730 33300.00000 0 -10952111.475 13469173.032 18681526.807 10 0 59730 34200.00000 0 -12878965.381 14500045.773 16561420.260 10 0 59730 35100.00000 0 -14474322.896 15542615.944 14119440.523 10 0 59730 36000.00000 0 -15716468.095 16536086.698 11403055.272 10 0 59730 36900.00000 0 -16597116.467 17418439.114 8465065.175 10 0 59730 37800.00000 0 -17121523.340 18129146.010 5362575.378 10 0 59730 38700.00000 0 -17308032.698 18611840.071 2155882.696 10 0 59730 39600.00000 0 -17187086.486 18816823.318 -1092699.450 10 0 59730 40500.00000 0 -16799737.370 18703311.540 -4320055.111 10 0 59730 41400.00000 0 -16195728.761 18241318.520 -7463494.863 10 0 59730 42300.00000 0 -15431224.115 17413100.068 -10461975.346 10 0 59730 43200.00000 0 -14566282.210 16214096.550 -13257285.291 10 0 59730 44100.00000 0 -13662185.581 14653333.746 -15795174.795 10 0 59730 45000.00000 0 -12778735.222 12753264.732 -18026405.825 10 0 59730 45900.00000 0 -11971625.776 10549058.872 -19907703.878 10 0 59730 46800.00000 0 -11290011.685 8087367.123 -21402592.746 10 0 59730 47700.00000 0 -10774366.505 5424614.594 -22482096.786 10 0 59730 48600.00000 0 -10454724.982 2624890.828 -23125297.782 10 0 59730 49500.00000 0 -10349381.320 -242475.293 -23319736.305 10 0 59730 50400.00000 0 -10464097.911 -3105556.046 -23061650.310 10 0 59730 51300.00000 0 -10791857.416 -5892572.185 -22356046.808 10 0 59730 52200.00000 0 -11313168.492 -8534634.161 -21216605.342 10 0 59730 53100.00000 0 -11996912.363 -10968364.439 -19665415.040 10 0 59730 54000.00000 0 -12801694.938 -13138293.142 -17732550.020 10 0 59730 54900.00000 0 -13677648.039 -14998928.455 -15455490.802 10 0 59730 55800.00000 0 -14568604.449 -16516416.422 -12878402.318 10 0 59730 56700.00000 0 -15414555.686 -17669721.825 -10051281.861 10 0 59730 57600.00000 0 -16154289.351 -18451281.479 -7028992.831 10 0 59730 58500.00000 0 -16728094.991 -18867103.209 -3870202.656 10 0 59730 59400.00000 0 -17080424.340 -18936306.889 -636245.197 10 0 59730 60300.00000 0 -17162393.297 -18690127.351 2610070.337 10 0 59730 61200.00000 0 -16934019.470 -18170421.518 5805680.585 10 0 59730 62100.00000 0 -16366100.038 -17427743.152 8888495.324 10 0 59730 63000.00000 0 -15441649.679 -16519066.781 11798606.633 10 0 59730 63900.00000 0 -14156836.836 -15505257.286 14479455.851 10 0 59730 64800.00000 0 -12521377.663 -14448392.255 16878935.365 10 0 59730 65700.00000 0 -10558369.824 -13409050.446 18950403.487 10 0 59730 66600.00000 0 -8303571.939 -12443680.943 20653592.508 10 0 59730 67500.00000 0 -5804157.689 -11602164.095 21955392.293 10 0 59730 68400.00000 0 -3116995.594 -10925667.050 22830494.320 10 0 59730 69300.00000 0 -306525.379 -10444884.188 23261883.772 10 0 59730 70200.00000 0 2557681.422 -10178736.409 23241170.355 10 0 59730 71100.00000 0 5403575.836 -10133583.875 22768751.586 10 0 59730 72000.00000 0 8159390.940 -10302985.179 21853805.421 10 0 59730 72900.00000 0 10756392.371 -10668012.904 20514112.384 10 0 59730 73800.00000 0 13131506.029 -11198112.165 18775710.485 10 0 59730 74700.00000 0 15229714.104 -11852465.830 16672389.443 10 0 59730 75600.00000 0 17006120.279 -12581808.762 14245033.830 10 0 59730 76500.00000 0 18427598.633 -13330614.435 11540827.616 10 0 59730 77400.00000 0 19473958.033 -14039561.419 8612335.542 10 0 59730 78300.00000 0 20138574.212 -14648175.339 5516479.141 10 0 59730 79200.00000 0 20428463.963 -15097534.327 2313427.461 10 0 59730 80100.00000 0 20363799.357 -15332923.212 -934575.572 10 0 59730 81000.00000 0 19976883.501 -15306323.792 -4164423.947 10 0 59730 81900.00000 0 19310632.052 -14978635.410 -7313378.494 10 0 59730 82800.00000 0 18416625.430 -14321531.536 -10320287.484 10 0 59730 83700.00000 0 17352814.752 -13318873.438 -13126774.855 10 0 59730 84600.00000 0 16180978.836 -11967620.781 -15678372.779 10 0 59730 85500.00000 0 14964039.926 -10278200.287 -17925576.498 10 0 59731 0.00000 0 13763351.455 -8274316.523 -19824801.059 10 0 59731 900.00000 0 12636071.283 -5992210.906 -21339222.791 10 0 59731 1800.00000 0 11632732.128 -3479401.981 -22439487.277 10 0 59731 2700.00000 0 10795108.602 -792955.089 -23104274.238 10 0 59731 3600.00000 0 10154471.325 2002644.802 -23320706.399 10 0 59731 4500.00000 0 9730300.058 4837930.589 -23084596.101 10 0 59731 5400.00000 0 9529509.258 7641100.507 -22400525.095 10 0 59731 6300.00000 0 9546217.966 10340766.755 -21281756.137 10 0 59731 7200.00000 0 9762073.327 12868692.172 -19749978.026 10 0 59731 8100.00000 0 10147113.934 15162402.373 -17834888.664 10 0 59731 9000.00000 0 10661136.715 17167565.734 -15573623.705 10 0 59731 9900.00000 0 11255509.996 18840042.919 -13010041.227 10 0 59731 10800.00000 0 11875356.609 20147521.302 -10193875.637 10 0 59731 11700.00000 0 12462015.226 21070666.600 -7179776.565 10 0 59731 12600.00000 0 12955676.199 21603743.983 -4026251.021 10 0 59731 13500.00000 0 13298080.569 21754683.065 -794529.026 10 0 59731 14400.00000 0 13435167.966 21544584.376 2452625.315 10 0 59731 15300.00000 0 13319561.026 21006688.341 5652133.996 10 0 59731 16200.00000 0 12912780.626 20184850.501 8741832.553 10 0 59731 17100.00000 0 12187097.419 19131587.452 11661680.556 10 0 59731 18000.00000 0 11126940.433 17905776.171 14354931.081 10 0 59731 18900.00000 0 9729802.110 16570103.949 16769236.108 10 0 59731 19800.00000 0 8006600.334 15188376.614 18857666.080 10 0 59731 20700.00000 0 5981480.960 13822798.598 20579623.565 10 0 59731 21600.00000 0 3691067.774 12531339.445 21901633.318 10 0 59731 22500.00000 0 1183190.021 11365297.464 22797993.470 10 0 59731 23400.00000 0 -1484860.399 10367162.891 23251275.324 10 0 59731 24300.00000 0 -4248470.410 9568870.072 23252662.287 10 0 59731 25200.00000 0 -7038157.588 8990511.733 22802121.495 10 0 59731 26100.00000 0 -9782230.982 8639568.984 21908404.859 10 0 59731 27000.00000 0 -12409550.854 8510688.913 20588879.528 10 0 59731 27900.00000 0 -14852273.115 8586018.652 18869190.882 10 0 59731 28800.00000 0 -17048464.618 8836081.369 16782764.453 10 0 59731 29700.00000 0 -18944480.841 9221156.858 14370156.173 10 0 59731 30600.00000 0 -20497007.272 9693108.003 11678263.369 10 0 59731 31500.00000 0 -21674679.700 10197575.644 8759411.731 10 0 59731 32400.00000 0 -22459216.232 10676448.624 5670336.002 10 0 59731 33300.00000 0 -22846014.311 11070504.114 2471074.301 10 0 59731 34200.00000 0 -22844188.420 11322106.033 -776202.009 10 0 59731 35100.00000 0 -22476047.789 11377846.842 -4008399.797 10 0 59731 36000.00000 0 -21776036.952 11191020.385 -7162732.941 10 0 59731 36900.00000 0 -20789184.656 10723820.638 -10177943.966 10 0 59731 37800.00000 0 -19569127.276 9949172.898 -12995494.435 10 0 59731 38700.00000 0 -18175790.612 8852119.514 -15560700.790 10 0 59731 39600.00000 0 -16672828.183 7430701.199 -17823793.434 10 0 59731 40500.00000 0 -15124923.955 5696296.200 -19740878.823 10 0 59731 41400.00000 0 -13595072.861 3673402.332 -21274786.303 10 0 59731 42300.00000 0 -12141952.967 1398870.292 -22395783.812 10 0 59731 43200.00000 0 -10817498.978 -1079380.651 -23082149.338 10 0 59731 44100.00000 0 -9664778.002 -3704111.985 -23320587.695 10 0 59731 45000.00000 0 -8716255.742 -6410908.464 -23106485.151 10 0 59731 45900.00000 0 -7992524.758 -9130625.798 -22443997.366 10 0 59731 46800.00000 0 -7501547.218 -11792042.953 -21345969.164 10 0 59731 47700.00000 0 -7238443.079 -14324609.877 -19833687.553 10 0 59731 48600.00000 0 -7185831.982 -16661177.516 -17936472.518 10 0 59731 49500.00000 0 -7314714.055 -18740597.560 -15691112.949 10 0 59731 50400.00000 0 -7585852.389 -20510084.358 -13141158.032 10 0 59731 51300.00000 0 -7951598.845 -21927241.234 -10336077.180 10 0 59731 52200.00000 0 -8358086.241 -22961667.065 -7330304.125 10 0 59731 53100.00000 0 -8747694.385 -23596076.187 -4182183.344 10 0 59731 54000.00000 0 -9061685.683 -23826885.012 -952838.933 10 0 59731 54900.00000 0 -9242898.675 -23664240.832 2295012.174 10 0 59731 55800.00000 0 -9238385.202 -23131491.718 5498279.391 10 0 59731 56700.00000 0 -9001879.007 -22264119.934 8594726.101 10 0 59731 57600.00000 0 -8495990.601 -21108183.826 11524181.482 10 0 59731 58500.00000 0 -7694034.633 -19718333.945 14229712.460 10 0 59731 59400.00000 0 -6581411.493 -18155487.036 16658732.694 10 0 59731 60300.00000 0 -5156483.590 -16484255.904 18764026.733 10 0 59731 61200.00000 0 -3430908.142 -14770243.344 20504669.245 10 0 59731 62100.00000 0 -1429411.107 -13077313.895 21846821.458 10 0 59731 63000.00000 0 810989.624 -11464957.863 22764389.455 10 0 59731 63900.00000 0 3242280.477 -9985858.101 23239531.644 10 0 59731 64800.00000 0 5807214.928 -8683761.231 23263005.777 10 0 59731 65700.00000 0 8441470.227 -7591742.106 22834348.926 10 0 59731 66600.00000 0 11076109.029 -6730933.751 21961886.956 10 0 59731 67500.00000 0 13640244.161 -6109775.349 20662573.335 10 0 59731 68400.00000 0 16063796.141 -5723809.128 18961660.234 10 0 59731 69300.00000 0 18280228.953 -5556033.898 16892208.115 10 0 59731 70200.00000 0 20229150.436 -5577799.612 14494443.116 10 0 59731 71100.00000 0 21858669.082 -5750204.484 11814974.451 10 0 59731 72000.00000 0 23127409.047 -6025935.012 8905886.964 10 0 59731 72900.00000 0 24006099.390 -6351470.494 5823726.474 10 0 59731 73800.00000 0 24478671.422 -6669558.132 2628397.728 10 0 59731 74700.00000 0 24542818.559 -6921853.375 -618003.189 10 0 59731 75600.00000 0 24209995.800 -7051613.061 -3852398.926 10 0 59731 76500.00000 0 23504859.530 -7006326.746 -7011959.402 10 0 59731 77400.00000 0 22464171.913 -6740174.238 -10035324.372 10 0 59731 78300.00000 0 21135216.652 -6216204.843 -12863795.908 10 0 59731 79200.00000 0 19573793.395 -5408145.640 -15442477.420 10 0 59731 80100.00000 0 17841875.540 -4301761.969 -17721336.971 10 0 59731 81000.00000 0 16005030.099 -2895712.183 -19656174.531 10 0 59731 81900.00000 0 14129707.902 -1201860.072 -21209474.812 10 0 59731 82800.00000 0 12280517.491 754968.898 -22351129.666 10 0 59731 83700.00000 0 10517596.362 2937778.140 -23059016.801 10 0 59731 84600.00000 0 8894188.730 5298705.315 -23319424.257 10 0 59731 85500.00000 0 7454530.266 7780789.000 -23127313.004 10 0 59732 0.00000 0 6232127.196 10320123.990 -22486413.105 10 0 59732 900.00000 0 5248500.032 12848318.074 -21409151.332 10 0 59732 1800.00000 0 4512445.034 15295145.691 -19916412.544 10 0 59732 2700.00000 0 4019841.184 17591293.702 -18037137.994 10 0 59732 3600.00000 0 3754011.661 19671082.494 -15807768.581 10 0 59732 4500.00000 0 3686623.356 21475051.112 -13271542.964 10 0 59732 5400.00000 0 3779086.255 22952298.962 -10477663.529 10 0 59732 6300.00000 0 3984393.455 24062486.658 -7480345.697 10 0 59732 7200.00000 0 4249323.991 24777412.458 -4337768.659 10 0 59732 8100.00000 0 4516915.207 25082098.349 -1110947.554 10 0 59732 9000.00000 0 4729099.879 24975340.161 2137451.097 10 0 59732 9900.00000 0 4829396.167 24469698.472 5344327.481 10 0 59732 10800.00000 0 4765536.019 23590930.610 8447376.194 10 0 59732 11700.00000 0 4491920.112 22376887.488 11386299.308 10 0 59732 12600.00000 0 3971794.665 20875921.607 14103980.743 10 0 59732 13500.00000 0 3179057.110 19144873.132 16547598.765 10 0 59732 14400.00000 0 2099613.237 17246718.643 18669654.700 10 0 59732 15300.00000 0 732227.438 15247981.284 20428897.683 10 0 59732 16200.00000 0 -911171.079 13216010.961 21791127.447 10 0 59732 17100.00000 0 -2805740.281 11216248.417 22729859.668 10 0 59732 18000.00000 0 -4914526.191 9309587.619 23226841.064 10 0 59732 18900.00000 0 -7189780.409 7549946.517 23272404.451 10 0 59732 19800.00000 0 -9574740.311 5982147.273 22865657.001 10 0 59732 20700.00000 0 -12005798.543 4640194.125 22014498.121 10 0 59732 21600.00000 0 -14414972.135 3546020.121 20735466.580 10 0 59732 22500.00000 0 -16732568.887 2708754.398 19053419.708 10 0 59732 23400.00000 0 -18889940.250 2124539.752 17001050.715 10 0 59732 24300.00000 0 -20822206.141 1776907.185 14618253.259 10 0 59732 25200.00000 0 -22470838.114 1637690.616 11951345.361 10 0 59732 26100.00000 0 -23785992.975 1668442.276 9052167.668 10 0 59732 27000.00000 0 -24728499.301 1822288.086 5977073.574 10 0 59732 27900.00000 0 -25271413.758 2046143.716 2785830.918 10 0 59732 28800.00000 0 -25401082.094 2283196.768 -459542.967 10 0 59732 29700.00000 0 -25117660.575 2475549.225 -3695989.860 10 0 59732 30600.00000 0 -24435076.329 2566907.555 -6860638.894 10 0 59732 31500.00000 0 -23380428.733 2505205.914 -9892030.030 10 0 59732 32400.00000 0 -21992857.492 2245050.854 -12731308.581 10 0 59732 33300.00000 0 -20321925.475 1749883.580 -15323367.376 10 0 59732 34200.00000 0 -18425584.602 993767.979 -17617914.246 10 0 59732 35100.00000 0 -16367810.380 -37271.521 -19570444.376 10 0 59732 36000.00000 0 -14216004.230 -1344419.133 -21143099.056 10 0 59732 36900.00000 0 -12038272.173 -2915779.426 -22305394.743 10 0 59732 37800.00000 0 -9900693.156 -4726644.411 -23034809.004 10 0 59732 38700.00000 0 -7864690.384 -6740305.672 -23317212.699 10 0 59732 39600.00000 0 -5984614.484 -8909378.534 -23147140.602 10 0 59732 40500.00000 0 -4305638.246 -11177584.058 -22527895.669 10 0 59732 41400.00000 0 -2862049.531 -13481915.729 -21471485.128 10 0 59732 42300.00000 0 -1676012.522 -15755101.557 -19998389.585 10 0 59732 43200.00000 0 -756847.849 -17928260.113 -18137169.306 10 0 59732 44100.00000 0 -100860.678 -19933640.719 -15923914.790 10 0 59732 45000.00000 0 308276.894 -21707334.178 -13401551.689 10 0 59732 45900.00000 0 498605.959 -23191841.470 -10619012.856 10 0 59732 46800.00000 0 508462.676 -24338393.354 -7630292.955 10 0 59732 47700.00000 0 384622.121 -25108923.845 -4493403.529 10 0 59732 48600.00000 0 180082.812 -25477614.823 -1269248.516 10 0 59732 49500.00000 0 -48414.100 -25431946.732 1979558.102 10 0 59732 50400.00000 0 -243025.665 -24973210.903 5189909.301 10 0 59732 51300.00000 0 -347495.730 -24116461.639 8299432.806 10 0 59732 52200.00000 0 -309776.916 -22889909.687 11247705.427 10 0 59732 53100.00000 0 -84474.297 -21333782.307 13977429.832 10 0 59732 54000.00000 0 364993.389 -19498697.536 16435550.526 10 0 59732 54900.00000 0 1064607.301 -17443620.689 18574287.127 10 0 59732 55800.00000 0 2028413.221 -15233488.646 20352064.552 10 0 59732 56700.00000 0 3257694.865 -12936601.309 21734322.123 10 0 59732 57600.00000 0 4740691.755 -10621889.172 22694185.938 10 0 59732 58500.00000 0 6452874.647 -8356171.048 23212991.559 10 0 59732 59400.00000 0 8357768.173 -6201516.195 23280647.104 10 0 59732 60300.00000 0 10408287.364 -4212820.428 22895829.812 10 0 59732 61200.00000 0 12548533.105 -2435696.944 22066012.326 10 0 59732 62100.00000 0 14715972.332 -904769.125 20807318.169 10 0 59732 63000.00000 0 16843912.597 357564.236 19144209.068 10 0 59732 63900.00000 0 18864168.043 1341840.560 17109010.005 10 0 59732 64800.00000 0 20709805.697 2051693.300 14741280.973 10 0 59732 65700.00000 0 22317857.409 2503454.404 12087047.399 10 0 59732 66600.00000 0 23631883.884 2725217.285 9197904.097 10 0 59732 67500.00000 0 24604283.375 2755400.973 6130010.146 10 0 59732 68400.00000 0 25198248.122 2640877.146 2942994.349 10 0 59732 69300.00000 0 25389286.363 2434740.228 -301207.071 10 0 59732 70200.00000 0 25166245.991 2193815.828 -3539557.538 10 0 59732 71100.00000 0 24531796.944 1976013.872 -6709148.017 10 0 59732 72000.00000 0 23502352.233 1837639.193 -9748421.295 10 0 59732 72900.00000 0 22107431.190 1830774.060 -12598368.473 10 0 59732 73800.00000 0 20388491.919 2000843.928 -15203674.212 10 0 59732 74700.00000 0 18397282.223 2384469.673 -17513788.345 10 0 59732 75600.00000 0 16193778.259 3007697.404 -19483903.312 10 0 59732 76500.00000 0 13843797.185 3884680.807 -21075818.840 10 0 59732 77400.00000 0 11416383.449 5016871.898 -22258677.656 10 0 59732 78300.00000 0 8981077.402 6392754.665 -23009558.660 10 0 59732 79200.00000 0 6605179.437 7988133.427 -23313916.788 10 0 59732 80100.00000 0 4351122.868 9766964.568 -23165861.593 10 0 59732 81000.00000 0 2274063.848 11682697.756 -22568269.670 10 0 59732 81900.00000 0 419787.504 13680071.660 -21532728.886 10 0 59732 82800.00000 0 -1176983.660 15697290.144 -20079315.519 10 0 59732 83700.00000 0 -2493809.835 17668489.144 -18236208.311 10 0 59732 84600.00000 0 -3521232.705 19526392.182 -16039146.396 10 0 59732 85500.00000 0 -4262924.750 21205044.276 -13530741.015 99